| time (UTC) | temp F | wind direction | speed MPH | gust MPH | rain 1hr in | rain 24hr in | rain mn in | humidity % | barometer mb |
| 20260902010505 | 58 | 270 | 12.0 | 15.0 | 0.00 | 0.00 | 0.00 | 1015.0 | |
| 20260902003506 | 58 | 270 | 12.0 | 15.0 | 0.00 | 0.00 | 0.00 | 1015.0 | |
| 20260902000506 | 58 | 268 | 13.0 | 17.0 | 0.00 | 0.00 | 0.00 | 1016.0 | |
| 20260901233506 | 57 | 268 | 13.0 | 17.0 | 0.00 | 0.00 | 0.00 | 1016.0 | |
| 20260901230506 | 58 | 265 | 14.0 | 19.0 | 0.00 | 0.00 | 0.00 | 1015.0 | |
| 20260901223506 | 58 | 265 | 14.0 | 19.0 | 0.00 | 0.00 | 0.00 | 1015.0 | |
| 20260901220506 | 59 | 263 | 16.0 | 21.0 | 0.00 | 0.00 | 0.00 | 1015.0 | |
| 20260901213506 | 59 | 263 | 16.0 | 21.0 | 0.00 | 0.00 | 0.00 | 1015.0 | |
| 20260901210506 | 59 | 257 | 17.0 | 22.0 | 0.00 | 0.00 | 0.00 | 1015.0 | |
| 20260901203505 | 59 | 257 | 17.0 | 22.0 | 0.00 | 0.00 | 0.00 | 1015.0 | |
| 20260901200505 | 60 | 252 | 17.0 | 22.0 | 0.00 | 0.00 | 0.00 | 1014.0 | |
| 20260901193505 | 60 | 252 | 17.0 | 22.0 | 0.00 | 0.00 | 0.00 | 1014.0 | |
| 20260901190505 | 60 | 248 | 17.0 | 22.0 | 0.00 | 0.00 | 0.00 | 1014.0 | |
| 20260901183505 | 60 | 248 | 17.0 | 22.0 | 0.00 | 0.00 | 0.00 | 1014.0 | |
| 20260901180505 | 61 | 246 | 19.0 | 25.0 | 0.00 | 0.00 | 0.00 | 1014.0 | |
| 20260901173505 | 61 | 244 | 18.0 | 24.0 | 0.00 | 0.00 | 0.00 | 1014.0 | |
| 20260901170505 | 61 | 239 | 18.0 | 24.0 | 0.00 | 0.00 | 0.00 | 1013.0 | |
| 20260901163506 | 61 | 239 | 18.0 | 24.0 | 0.00 | 0.00 | 0.00 | 1013.0 | |
| 20260901160506 | 61 | 246 | 22.0 | 29.0 | 0.00 | 0.00 | 0.00 | 1013.0 | |
| 20260901153506 | 61 | 246 | 22.0 | 29.0 | 0.00 | 0.00 | 0.00 | 1013.0 | |
| 20260901150506 | 61 | 239 | 22.0 | 29.0 | 0.00 | 0.00 | 0.00 | 1013.0 | |
| 20260901143506 | 61 | 239 | 22.0 | 29.0 | 0.00 | 0.00 | 0.00 | 1013.0 | |
| 20260901140506 | 62 | 245 | 25.0 | 33.0 | 0.00 | 0.00 | 0.00 | 1012.0 | |
| 20260901133505 | 62 | 245 | 25.0 | 33.0 | 0.00 | 0.00 | 0.00 | 1013.0 | |
| 20260901130506 | 62 | 242 | 26.0 | 34.0 | 0.00 | 0.00 | 0.00 | 1013.0 | |
| 20260901123505 | 62 | 242 | 26.0 | 34.0 | 0.00 | 0.00 | 0.00 | 1013.0 | |
| 20260901120505 | 62 | 239 | 25.0 | 33.0 | 0.00 | 0.00 | 0.00 | 1012.0 | |
| 20260901113505 | 62 | 236 | 23.0 | 30.0 | 0.00 | 0.00 | 0.00 | 1012.0 | |
| 20260901110505 | 62 | 236 | 23.0 | 30.0 | 0.00 | 0.00 | 0.00 | 1012.0 | |
| 20260901103505 | 62 | 236 | 23.0 | 30.0 | 0.00 | 0.00 | 0.00 | 1013.0 | |
| 20260901100505 | 61 | 227 | 21.0 | 27.0 | 0.00 | 0.00 | 0.00 | 1013.0 | |
| 20260901093505 | 61 | 227 | 21.0 | 27.0 | 0.00 | 0.00 | 0.00 | 1013.0 | |
| 20260901090505 | 59 | 223 | 17.0 | 22.0 | 0.00 | 0.37 | 0.00 | 1013.0 | |
| 20260901083506 | 59 | 223 | 17.0 | 22.0 | 0.00 | 0.37 | 0.00 | 1013.0 | |
| 20260901080506 | 59 | 227 | 17.0 | 23.0 | 0.00 | 0.37 | 0.00 | 1013.0 | |
| 20260901073506 | 59 | 227 | 17.0 | 23.0 | 0.00 | 0.37 | 0.00 | 1014.0 | |
| 20260901070506 | 58 | 232 | 16.0 | 22.0 | 0.00 | 0.37 | 0.00 | 1014.0 | |
| 20260901063506 | 58 | 232 | 16.0 | 22.0 | 0.00 | 0.37 | 0.00 | 1014.0 | |
| 20260901060506 | 58 | 236 | 18.0 | 24.0 | 0.00 | 0.37 | 0.00 | 1014.0 | |
| 20260901053506 | 58 | 235 | 18.0 | 24.0 | 0.00 | 0.37 | 0.00 | 1014.0 | |
| 20260901050506 | 58 | 235 | 18.0 | 24.0 | 0.00 | 0.37 | 0.00 | 1014.0 | |
| 20260901043505 | 58 | 235 | 18.0 | 24.0 | 0.00 | 0.37 | 0.00 | 1014.0 | |
| 20260901040505 | 58 | 233 | 17.0 | 23.0 | 0.00 | 0.37 | 0.00 | 1014.0 | |
| 20260901033505 | 58 | 232 | 16.0 | 21.0 | 0.00 | 0.37 | 0.00 | 1015.0 | |
| 20260901030505 | 58 | 232 | 16.0 | 21.0 | 0.00 | 0.37 | 0.00 | 1014.0 | |
| 20260901023505 | 58 | 232 | 16.0 | 21.0 | 0.00 | 0.37 | 0.00 | 1015.0 | |
| 20260901020505 | 57 | 227 | 13.0 | 18.0 | 0.00 | 0.37 | 0.00 | 1015.0 | |
| 20260901013506 | 57 | 236 | 13.0 | 18.0 | 0.00 | 0.37 | 0.00 | 1015.0 |